| time (UTC) | temp F | wind direction | speed knots | gust knots | rain 1hr in | rain 24hr in | rain mn in | humidity % | barometer mb |
| 20260507093129 | 55 | 290 | 5.2 | 0.0 | 0.00 | 0.00 | 0.00 | 10 | 1014.7 |
| 20260507092629 | 55 | 290 | 5.2 | 0.0 | 0.00 | 0.00 | 0.00 | 10 | 1014.7 |
| 20260507092129 | 55 | 290 | 5.2 | 0.0 | 0.00 | 0.00 | 0.00 | 10 | 1014.7 |
| 20260507091629 | 54 | 290 | 5.2 | 0.0 | 0.00 | 0.00 | 0.00 | 10 | 1014.6 |
| 20260507091129 | 54 | 290 | 5.2 | 0.0 | 0.00 | 0.00 | 0.00 | 10 | 1014.6 |
| 20260507090629 | 54 | 290 | 5.2 | 0.0 | 0.00 | 0.00 | 0.00 | 10 | 1014.5 |
| 20260507090129 | 54 | 290 | 4.3 | 0.0 | 0.00 | 0.00 | 0.00 | 10 | 1014.5 |
| 20260507085629 | 55 | 290 | 4.3 | 0.0 | 0.00 | 0.00 | 0.00 | 10 | 1014.4 |
| 20260507085129 | 53 | 290 | 4.3 | 0.0 | 0.00 | 0.00 | 0.00 | 10 | 1014.5 |
| 20260507084628 | 53 | 290 | 4.3 | 0.0 | 0.00 | 0.00 | 0.00 | 10 | 1014.5 |
| 20260507084128 | 53 | 290 | 4.3 | 0.0 | 0.00 | 0.00 | 0.00 | 10 | 1014.4 |
| 20260507083628 | 52 | 290 | 4.3 | 0.0 | 0.00 | 0.00 | 0.00 | 10 | 1014.4 |
| 20260507083128 | 52 | 320 | 5.2 | 0.0 | 0.00 | 0.00 | 0.00 | 10 | 1014.4 |
| 20260507082628 | 53 | 320 | 5.2 | 0.0 | 0.00 | 0.00 | 0.00 | 10 | 1014.3 |
| 20260507082128 | 53 | 320 | 5.2 | 0.0 | 0.00 | 0.00 | 0.00 | 10 | 1014.3 |
| 20260507081628 | 52 | 320 | 5.2 | 0.0 | 0.00 | 0.00 | 0.00 | 10 | 1014.3 |
| 20260507081128 | 52 | 320 | 5.2 | 0.0 | 0.00 | 0.00 | 0.00 | 10 | 1014.3 |
| 20260507080628 | 52 | 290 | 7.0 | 0.0 | 0.00 | 0.00 | 0.00 | 10 | 1014.2 |
| 20260507080128 | 51 | 290 | 7.0 | 0.0 | 0.00 | 0.00 | 0.00 | 10 | 1014.3 |
| 20260507075628 | 53 | 290 | 7.0 | 0.0 | 0.00 | 0.00 | 0.00 | 10 | 1014.1 |
| 20260507075128 | 52 | 290 | 7.0 | 0.0 | 0.00 | 0.00 | 0.00 | 10 | 1014.0 |
| 20260507074628 | 52 | 290 | 7.0 | 0.0 | 0.00 | 0.00 | 0.00 | 10 | 1014.0 |
| 20260507074128 | 52 | 300 | 6.1 | 0.0 | 0.00 | 0.00 | 0.00 | 10 | 1013.9 |
| 20260507073628 | 52 | 300 | 6.1 | 0.0 | 0.00 | 0.00 | 0.00 | 10 | 1013.9 |
| 20260507073128 | 52 | 300 | 6.1 | 0.0 | 0.00 | 0.00 | 0.00 | 10 | 1013.8 |
| 20260507072628 | 52 | 300 | 6.1 | 0.0 | 0.00 | 0.00 | 0.00 | 10 | 1013.8 |
| 20260507072127 | 52 | 300 | 6.1 | 0.0 | 0.00 | 0.00 | 0.00 | 10 | 1013.7 |
| 20260507071627 | 52 | 280 | 6.1 | 0.0 | 0.00 | 0.00 | 0.00 | 10 | 1013.6 |
| 20260507071127 | 52 | 280 | 6.1 | 0.0 | 0.00 | 0.00 | 0.00 | 10 | 1013.7 |
| 20260507070627 | 52 | 280 | 6.1 | 0.0 | 0.00 | 0.00 | 0.00 | 10 | 1013.6 |
| 20260507070127 | 52 | 280 | 6.1 | 0.0 | 0.00 | 0.00 | 0.00 | 10 | 1013.6 |
| 20260507065627 | 52 | 280 | 6.1 | 0.0 | 0.00 | 0.00 | 0.00 | 10 | 1013.6 |
| 20260507065127 | 52 | 280 | 6.1 | 0.0 | 0.00 | 0.00 | 0.00 | 10 | 1013.6 |
| 20260507064627 | 52 | 280 | 6.1 | 0.0 | 0.00 | 0.00 | 0.00 | 10 | 1013.5 |
| 20260507064127 | 51 | 280 | 6.1 | 0.0 | 0.00 | 0.00 | 0.00 | 10 | 1013.4 |
| 20260507063627 | 51 | 280 | 6.1 | 0.0 | 0.00 | 0.00 | 0.00 | 10 | 1013.5 |
| 20260507063127 | 51 | 280 | 5.2 | 0.0 | 0.00 | 0.00 | 0.00 | 10 | 1013.4 |
| 20260507062627 | 51 | 280 | 5.2 | 0.0 | 0.00 | 0.00 | 0.00 | 10 | 1013.4 |
| 20260507062127 | 51 | 280 | 5.2 | 0.0 | 0.00 | 0.00 | 0.00 | 10 | 1013.3 |
| 20260507061627 | 51 | 280 | 5.2 | 0.0 | 0.00 | 0.00 | 0.00 | 10 | 1013.2 |
| 20260507061127 | 51 | 280 | 5.2 | 0.0 | 0.00 | 0.00 | 0.00 | 10 | 1013.1 |
| 20260507060627 | 51 | 280 | 5.2 | 0.0 | 0.00 | 0.00 | 0.00 | 10 | 1013.0 |
| 20260507060127 | 51 | 280 | 6.1 | 0.0 | 0.00 | 0.00 | 0.00 | 10 | 1012.9 |
| 20260507055627 | 51 | 280 | 6.1 | 0.0 | 0.00 | 0.00 | 0.00 | 10 | 1012.9 |
| 20260507055127 | 51 | 280 | 6.1 | 0.0 | 0.00 | 0.00 | 0.00 | 10 | 1012.8 |
| 20260507054626 | 51 | 280 | 6.1 | 0.0 | 0.00 | 0.00 | 0.00 | 10 | 1012.7 |
| 20260507054127 | 51 | 280 | 6.1 | 0.0 | 0.00 | 0.00 | 0.00 | 10 | 1012.7 |
| 20260507053626 | 51 | 280 | 6.1 | 0.0 | 0.00 | 0.00 | 0.00 | 10 | 1012.8 |
| 20260507053126 | 51 | 270 | 5.2 | 0.0 | 0.00 | 0.00 | 0.00 | 10 | 1012.7 |
| 20260507052626 | 51 | 270 | 5.2 | 0.0 | 0.00 | 0.00 | 0.00 | 10 | 1012.6 |
| 20260507052126 | 51 | 270 | 5.2 | 0.0 | 0.00 | 0.00 | 0.00 | 10 | 1012.6 |
| 20260507051626 | 50 | 270 | 5.2 | 0.0 | 0.00 | 0.00 | 0.00 | 10 | 1012.5 |
| 20260507051126 | 51 | 270 | 5.2 | 0.0 | 0.00 | 0.00 | 0.00 | 10 | 1012.4 |
| 20260507050626 | 51 | 280 | 4.3 | 0.0 | 0.00 | 0.00 | 0.00 | 10 | 1012.4 |
| 20260507050126 | 51 | 280 | 4.3 | 0.0 | 0.00 | 0.00 | 0.00 | 10 | 1012.3 |
| 20260507045626 | 51 | 280 | 4.3 | 0.0 | 0.00 | 0.00 | 0.00 | 10 | 1012.3 |
| 20260507045126 | 50 | 280 | 4.3 | 0.0 | 0.00 | 0.00 | 0.00 | 10 | 1012.2 |
| 20260507044626 | 51 | 280 | 4.3 | 0.0 | 0.00 | 0.00 | 0.00 | 10 | 1012.1 |
| 20260507044126 | 51 | 300 | 7.0 | 0.0 | 0.00 | 0.00 | 0.00 | 10 | 1012.1 |
| 20260507043626 | 51 | 300 | 7.0 | 0.0 | 0.00 | 0.00 | 0.00 | 10 | 1012.0 |
| 20260507043126 | 51 | 300 | 7.0 | 0.0 | 0.00 | 0.00 | 0.00 | 10 | 1012.0 |
| 20260507042626 | 51 | 300 | 7.0 | 0.0 | 0.00 | 0.00 | 0.00 | 10 | 1011.8 |
| 20260507042126 | 51 | 300 | 7.0 | 0.0 | 0.00 | 0.00 | 0.00 | 10 | 1011.8 |
| 20260507041625 | 51 | 300 | 7.0 | 0.0 | 0.00 | 0.00 | 0.00 | 10 | 1011.7 |
| 20260507041125 | 51 | 300 | 7.0 | 0.0 | 0.00 | 0.00 | 0.00 | 10 | 1011.6 |
| 20260507040625 | 51 | 300 | 7.0 | 0.0 | 0.00 | 0.00 | 0.00 | 10 | 1011.6 |
| 20260507040125 | 51 | 310 | 5.2 | 0.0 | 0.00 | 0.00 | 0.00 | 10 | 1011.6 |
| 20260507035625 | 51 | 310 | 5.2 | 0.0 | 0.00 | 0.00 | 0.00 | 10 | 1011.5 |
| 20260507035125 | 51 | 310 | 5.2 | 0.0 | 0.00 | 0.00 | 0.00 | 10 | 1011.5 |
| 20260507034625 | 51 | 300 | 4.3 | 0.0 | 0.00 | 0.00 | 0.00 | 10 | 1011.5 |
| 20260507034125 | 51 | 300 | 4.3 | 0.0 | 0.00 | 0.00 | 0.00 | 10 | 1011.5 |
| 20260507033625 | 51 | 300 | 4.3 | 0.0 | 0.00 | 0.00 | 0.00 | 10 | 1011.4 |
| 20260507033125 | 51 | 300 | 4.3 | 0.0 | 0.00 | 0.00 | 0.00 | 10 | 1011.4 |
| 20260507032625 | 51 | 300 | 4.3 | 0.0 | 0.00 | 0.00 | 0.00 | 10 | 1011.3 |
| 20260507032125 | 51 | 300 | 4.3 | 0.0 | 0.00 | 0.00 | 0.00 | 10 | 1011.3 |
| 20260507031625 | 51 | 300 | 4.3 | 0.0 | 0.00 | 0.00 | 0.00 | 10 | 1011.3 |
| 20260507031125 | 51 | 310 | 4.3 | 0.0 | 0.00 | 0.00 | 0.00 | 10 | 1011.3 |
| 20260507030625 | 51 | 310 | 4.3 | 0.0 | 0.00 | 0.00 | 0.00 | 10 | 1011.2 |
| 20260507030125 | 51 | 310 | 4.3 | 0.0 | 0.00 | 0.00 | 0.00 | 10 | 1011.2 |
| 20260507025625 | 52 | 310 | 4.3 | 0.0 | 0.00 | 0.00 | 0.00 | 10 | 1011.2 |
| 20260507025125 | 51 | 310 | 4.3 | 0.0 | 0.00 | 0.00 | 0.00 | 10 | 1011.2 |
| 20260507024625 | 51 | 310 | 4.3 | 0.0 | 0.00 | 0.00 | 0.00 | 10 | 1011.2 |
| 20260507024124 | 52 | 310 | 4.3 | 0.0 | 0.00 | 0.00 | 0.00 | 10 | 1011.2 |
| 20260507023625 | 52 | 300 | 5.2 | 0.0 | 0.00 | 0.00 | 0.00 | 10 | 1011.2 |
| 20260507023124 | 52 | 300 | 5.2 | 0.0 | 0.00 | 0.00 | 0.00 | 10 | 1011.2 |
| 20260507022624 | 52 | 300 | 5.2 | 0.0 | 0.00 | 0.00 | 0.00 | 10 | 1011.2 |
| 20260507022124 | 52 | 300 | 5.2 | 0.0 | 0.00 | 0.00 | 0.00 | 10 | 1011.1 |
| 20260507021624 | 51 | 280 | 5.2 | 0.0 | 0.00 | 0.00 | 0.00 | 10 | 1011.0 |
| 20260507021124 | 51 | 280 | 5.2 | 0.0 | 0.00 | 0.00 | 0.00 | 10 | 1011.0 |
| 20260507020624 | 51 | 280 | 5.2 | 0.0 | 0.00 | 0.00 | 0.00 | 10 | 1011.0 |
| 20260507020124 | 51 | 280 | 5.2 | 0.0 | 0.00 | 0.00 | 0.00 | 10 | 1010.9 |
| 20260507015624 | 52 | 280 | 5.2 | 0.0 | 0.00 | 0.00 | 0.00 | 10 | 1010.9 |
| 20260507015124 | 52 | 280 | 5.2 | 0.0 | 0.00 | 0.00 | 0.00 | 10 | 1010.8 |
| 20260507014624 | 52 | 280 | 5.2 | 0.0 | 0.00 | 0.00 | 0.00 | 10 | 1010.8 |
| 20260507014124 | 51 | 280 | 5.2 | 0.0 | 0.00 | 0.00 | 0.00 | 10 | 1010.7 |
| 20260507013624 | 51 | 280 | 5.2 | 0.0 | 0.00 | 0.00 | 0.00 | 10 | 1010.7 |
| 20260507013124 | 51 | 280 | 4.3 | 0.0 | 0.00 | 0.00 | 0.00 | 10 | 1010.6 |
| 20260507012624 | 52 | 280 | 4.3 | 0.0 | 0.00 | 0.00 | 0.00 | 10 | 1010.6 |
| 20260507012123 | 52 | 280 | 4.3 | 0.0 | 0.00 | 0.00 | 0.00 | 10 | 1010.6 |
| 20260507011623 | 51 | 280 | 4.3 | 0.0 | 0.00 | 0.00 | 0.00 | 10 | 1010.6 |
| 20260507011124 | 51 | 280 | 4.3 | 0.0 | 0.00 | 0.00 | 0.00 | 10 | 1010.6 |
| 20260507010623 | 51 | 280 | 4.3 | 0.0 | 0.00 | 0.00 | 0.00 | 10 | 1010.5 |
| 20260507010123 | 51 | 300 | 4.3 | 0.0 | 0.00 | 0.00 | 0.00 | 10 | 1010.5 |
| 20260507005623 | 51 | 300 | 4.3 | 0.0 | 0.00 | 0.00 | 0.00 | 10 | 1010.5 |
| 20260507005123 | 51 | 270 | 4.3 | 0.0 | 0.00 | 0.00 | 0.00 | 10 | 1010.4 |
| 20260507004623 | 51 | 270 | 4.3 | 0.0 | 0.00 | 0.00 | 0.00 | 10 | 1010.5 |
| 20260507004123 | 51 | 270 | 4.3 | 0.0 | 0.00 | 0.00 | 0.00 | 10 | 1010.5 |
| 20260507003623 | 51 | 260 | 4.3 | 0.0 | 0.00 | 0.00 | 0.00 | 10 | 1010.5 |
| 20260507003123 | 51 | 260 | 4.3 | 0.0 | 0.00 | 0.00 | 0.00 | 10 | 1010.5 |
| 20260507002623 | 51 | 260 | 4.3 | 0.0 | 0.00 | 0.00 | 0.00 | 10 | 1010.5 |
| 20260507002123 | 51 | 260 | 4.3 | 0.0 | 0.00 | 0.00 | 0.00 | 10 | 1010.5 |
| 20260507001623 | 51 | 260 | 4.3 | 0.0 | 0.00 | 0.00 | 0.00 | 10 | 1010.5 |
| 20260507001123 | 52 | 260 | 4.3 | 0.0 | 0.00 | 0.00 | 0.00 | 10 | 1010.5 |
| 20260507000623 | 51 | 270 | 4.3 | 0.0 | 0.00 | 0.00 | 0.00 | 10 | 1010.4 |
| 20260507000123 | 52 | 270 | 4.3 | 0.0 | 0.00 | 0.00 | 0.00 | 10 | 1010.4 |
| 20260506235623 | 52 | 270 | 4.3 | 0.0 | 0.00 | 0.00 | 0.00 | 10 | 1010.4 |
| 20260506235123 | 52 | 270 | 4.3 | 0.0 | 0.00 | 0.00 | 0.00 | 10 | 1010.4 |
| 20260506234622 | 51 | 270 | 4.3 | 0.0 | 0.00 | 0.00 | 0.00 | 10 | 1010.4 |
| 20260506234122 | 51 | 280 | 3.5 | 0.0 | 0.00 | 0.00 | 0.00 | 10 | 1010.4 |
| 20260506233622 | 51 | 280 | 3.5 | 0.0 | 0.00 | 0.00 | 0.00 | 10 | 1010.3 |
| 20260506233122 | 51 | 280 | 3.5 | 0.0 | 0.00 | 0.00 | 0.00 | 10 | 1010.3 |
| 20260506232622 | 51 | 280 | 3.5 | 0.0 | 0.00 | 0.00 | 0.00 | 10 | 1010.3 |
| 20260506232122 | 51 | 280 | 3.5 | 0.0 | 0.00 | 0.00 | 0.00 | 10 | 1010.3 |
| 20260506231622 | 51 | 290 | 3.5 | 0.0 | 0.00 | 0.00 | 0.00 | 10 | 1010.3 |
| 20260506231122 | 52 | 290 | 3.5 | 0.0 | 0.00 | 0.00 | 0.00 | 10 | 1010.2 |
| 20260506230622 | 51 | 290 | 3.5 | 0.0 | 0.00 | 0.00 | 0.00 | 10 | 1010.2 |
| 20260506230122 | 51 | 300 | 5.2 | 0.0 | 0.00 | 0.00 | 0.00 | 10 | 1010.1 |
| 20260506225622 | 51 | 300 | 5.2 | 0.0 | 0.00 | 0.00 | 0.00 | 10 | 1010.1 |
| 20260506225122 | 51 | 300 | 5.2 | 0.0 | 0.00 | 0.00 | 0.00 | 10 | 1010.1 |
| 20260506224622 | 52 | 300 | 5.2 | 0.0 | 0.00 | 0.00 | 0.00 | 10 | 1010.0 |
| 20260506224122 | 52 | 300 | 5.2 | 0.0 | 0.00 | 0.00 | 0.00 | 10 | 1010.0 |
| 20260506223621 | 52 | 300 | 5.2 | 0.0 | 0.00 | 0.00 | 0.00 | 10 | 1009.9 |
| 20260506223121 | 52 | 300 | 5.2 | 0.0 | 0.00 | 0.00 | 0.00 | 10 | 1009.8 |
| 20260506222621 | 51 | 300 | 5.2 | 0.0 | 0.00 | 0.00 | 0.00 | 10 | 1009.9 |
| 20260506222121 | 51 | 300 | 5.2 | 0.0 | 0.00 | 0.00 | 0.00 | 10 | 1009.8 |
| 20260506221621 | 51 | 300 | 5.2 | 0.0 | 0.00 | 0.00 | 0.00 | 10 | 1009.8 |
| 20260506221121 | 52 | 300 | 5.2 | 0.0 | 0.00 | 0.00 | 0.00 | 10 | 1009.8 |
| 20260506220621 | 51 | 310 | 5.2 | 0.0 | 0.00 | 0.00 | 0.00 | 10 | 1009.9 |
| 20260506220121 | 52 | 310 | 5.2 | 0.0 | 0.00 | 0.00 | 0.00 | 10 | 1009.8 |
| 20260506215621 | 52 | 310 | 5.2 | 0.0 | 0.00 | 0.00 | 0.00 | 10 | 1009.8 |
| 20260506215120 | 51 | 310 | 5.2 | 0.0 | 0.00 | 0.00 | 0.00 | 10 | 1009.8 |
| 20260506214620 | 52 | 310 | 5.2 | 0.0 | 0.00 | 0.00 | 0.00 | 10 | 1009.7 |
| 20260506214120 | 52 | 270 | 4.3 | 0.0 | 0.00 | 0.00 | 0.00 | 10 | 1009.8 |
| 20260506213620 | 361 | 270 | 4.3 | 0.0 | 0.00 | 0.00 | 0.00 | 10 | 1298.3 |
| 20260506213120 | 52 | 270 | 4.3 | 0.0 | 0.00 | 0.00 | 0.00 | 10 | 1009.8 |
| 20260506212620 | 361 | 270 | 4.3 | 0.0 | 0.00 | 0.00 | 0.00 | 10 | 1298.0 |
| 20260506212120 | 361 | 270 | 4.3 | 0.0 | 0.00 | 0.00 | 0.00 | 10 | 1297.2 |
| 20260506211620 | 361 | 270 | 4.3 | 0.0 | 0.00 | 0.00 | 0.00 | 10 | -186.4 |
| 20260506211120 | 361 | 270 | 4.3 | 0.0 | 0.00 | 0.00 | 0.00 | 10 | -186.4 |
| 20260506210620 | 361 | 310 | 5.2 | 0.0 | 0.00 | 0.00 | 0.00 | 10 | -186.4 |
| 20260506210120 | 361 | 310 | 5.2 | 0.0 | 0.00 | 0.00 | 0.00 | 10 | -186.4 |
| 20260506205620 | 52 | 300 | 5.2 | 0.0 | 0.00 | 0.00 | 0.00 | 10 | 1009.5 |
| 20260506205119 | 361 | 300 | 5.2 | 0.0 | 0.00 | 0.00 | 0.00 | 10 | 1009.5 |
| 20260506204619 | 361 | 300 | 5.2 | 0.0 | 0.00 | 0.00 | 0.00 | 10 | -186.4 |
| 20260506204120 | 361 | 320 | 4.3 | 0.0 | 0.00 | 0.00 | 0.00 | 10 | -186.4 |
| 20260506203619 | 361 | 320 | 4.3 | 0.0 | 0.00 | 0.00 | 0.00 | 10 | -186.4 |
| 20260506203119 | 361 | 300 | 3.5 | 0.0 | 0.00 | 0.00 | 0.00 | 10 | 1296.7 |
| 20260506202619 | 361 | 300 | 3.5 | 0.0 | 0.00 | 0.00 | 0.00 | 10 | 1296.7 |
| 20260506202119 | 361 | 300 | 3.5 | 0.0 | 0.00 | 0.00 | 0.00 | 10 | 1296.3 |
| 20260506201619 | 361 | 300 | 3.5 | 0.0 | 0.00 | 0.00 | 0.00 | 10 | -186.4 |
| 20260506201119 | 361 | 300 | 3.5 | 0.0 | 0.00 | 0.00 | 0.00 | 10 | 1295.7 |
| 20260506200619 | 53 | 300 | 3.5 | 0.0 | 0.00 | 0.00 | 0.00 | 10 | 1009.0 |
| 20260506200119 | 361 | 340 | 3.5 | 0.0 | 0.00 | 0.00 | 0.00 | 10 | 1009.0 |
| 20260506195619 | 361 | 340 | 3.5 | 0.0 | 0.00 | 0.00 | 0.00 | 10 | 1295.4 |
| 20260506195119 | 361 | 340 | 3.5 | 0.0 | 0.00 | 0.00 | 0.00 | 10 | 1295.3 |
| 20260506194619 | 361 | 340 | 3.5 | 0.0 | 0.00 | 0.00 | 0.00 | 10 | -186.4 |
| 20260506194119 | 361 | 340 | 3.5 | 0.0 | 0.00 | 0.00 | 0.00 | 10 | -186.4 |
| 20260506193619 | 361 | 290 | 3.5 | 0.0 | 0.00 | 0.00 | 0.00 | 10 | 1295.2 |
| 20260506193119 | 361 | 290 | 3.5 | 0.0 | 0.00 | 0.00 | 0.00 | 10 | -186.4 |
| 20260506192619 | 361 | 290 | 3.5 | 0.0 | 0.00 | 0.00 | 0.00 | 10 | 1294.5 |
| 20260506192119 | 361 | 290 | 3.5 | 0.0 | 0.00 | 0.00 | 0.00 | 10 | -186.4 |
| 20260506191618 | 361 | 310 | 5.2 | 0.0 | 0.00 | 0.00 | 0.00 | 10 | -186.4 |
| 20260506191119 | 361 | 310 | 5.2 | 0.0 | 0.00 | 0.00 | 0.00 | 10 | 1293.6 |
| 20260506190618 | 361 | 310 | 6.1 | 0.0 | 0.00 | 0.00 | 0.00 | 10 | 1293.5 |
| 20260506190118 | 361 | 310 | 6.1 | 0.0 | 0.00 | 0.00 | 0.00 | 10 | -186.4 |
| 20260506185618 | 361 | 310 | 6.1 | 0.0 | 0.00 | 0.00 | 0.00 | 10 | 1293.7 |
| 20260506185118 | 361 | 310 | 6.1 | 0.0 | 0.00 | 0.00 | 0.00 | 10 | 1293.0 |
| 20260506184619 | 361 | 310 | 6.1 | 0.0 | 0.00 | 0.00 | 0.00 | 10 | 1291.5 |
| 20260506184118 | 361 | 310 | 6.1 | 0.0 | 0.00 | 0.00 | 0.00 | 10 | -186.4 |
| 20260506183618 | 361 | 310 | 6.1 | 0.0 | 0.00 | 0.00 | 0.00 | 10 | 1291.8 |
| 20260506183118 | 361 | 310 | 6.1 | 0.0 | 0.00 | 0.00 | 0.00 | 10 | -186.4 |
| 20260506182618 | 55 | 310 | 6.1 | 0.0 | 0.00 | 0.00 | 0.00 | 10 | 1007.6 |
| 20260506182118 | 361 | 310 | 5.2 | 0.0 | 0.00 | 0.00 | 0.00 | 10 | -186.4 |
| 20260506181618 | 361 | 310 | 5.2 | 0.0 | 0.00 | 0.00 | 0.00 | 10 | 1007.6 |
| 20260506181118 | 361 | 300 | 4.3 | 0.0 | 0.00 | 0.00 | 0.00 | 10 | 1007.5 |
| 20260506180618 | 56 | 300 | 4.3 | 0.0 | 0.00 | 0.00 | 0.00 | 10 | 1007.5 |
| 20260506180118 | 57 | 300 | 4.3 | 0.0 | 0.00 | 0.00 | 0.00 | 10 | 1007.3 |
| 20260506175618 | 56 | 320 | 5.2 | 0.0 | 0.00 | 0.00 | 0.00 | 10 | 1007.2 |
| 20260506175118 | 56 | 320 | 5.2 | 0.0 | 0.00 | 0.00 | 0.00 | 10 | 1007.2 |
| 20260506174617 | 56 | 320 | 5.2 | 0.0 | 0.00 | 0.00 | 0.00 | 10 | 1007.3 |
| 20260506174118 | 56 | 320 | 5.2 | 0.0 | 0.00 | 0.00 | 0.00 | 10 | 1007.2 |
| 20260506173617 | 56 | 320 | 7.0 | 0.0 | 0.00 | 0.00 | 0.00 | 10 | 1007.2 |
| 20260506173117 | 56 | 320 | 7.0 | 0.0 | 0.00 | 0.00 | 0.00 | 10 | 1007.1 |
| 20260506172617 | 57 | 330 | 7.0 | 0.0 | 0.00 | 0.00 | 0.00 | 10 | 1007.1 |
| 20260506172117 | 57 | 330 | 7.0 | 0.0 | 0.00 | 0.00 | 0.00 | 10 | 1007.0 |
| 20260506171617 | 56 | 330 | 7.0 | 0.0 | 0.00 | 0.00 | 0.00 | 10 | 1007.0 |
| 20260506171117 | 56 | 310 | 5.2 | 0.0 | 0.00 | 0.00 | 0.00 | 10 | 1007.0 |
| 20260506170617 | 57 | 310 | 5.2 | 0.0 | 0.00 | 0.00 | 0.00 | 10 | 1007.0 |
| 20260506170117 | 56 | 310 | 5.2 | 0.0 | 0.00 | 0.00 | 0.00 | 10 | 1007.0 |
| 20260506165617 | 56 | 310 | 5.2 | 0.0 | 0.00 | 0.00 | 0.00 | 10 | 1007.0 |
| 20260506165117 | 57 | 310 | 5.2 | 0.0 | 0.00 | 0.00 | 0.00 | 10 | 1006.8 |
| 20260506164617 | 57 | 310 | 5.2 | 0.0 | 0.00 | 0.00 | 0.00 | 10 | 1006.8 |
| 20260506164117 | 57 | 280 | 5.2 | 0.0 | 0.00 | 0.00 | 0.00 | 10 | 1006.8 |
| 20260506163617 | 58 | 280 | 5.2 | 0.0 | 0.00 | 0.00 | 0.00 | 10 | 1006.8 |
| 20260506163117 | 57 | 280 | 5.2 | 0.0 | 0.00 | 0.00 | 0.00 | 10 | 1006.8 |
| 20260506162617 | 57 | 280 | 5.2 | 0.0 | 0.00 | 0.00 | 0.00 | 10 | 1006.8 |
| 20260506162116 | 57 | 280 | 5.2 | 0.0 | 0.00 | 0.00 | 0.00 | 10 | 1006.7 |
| 20260506161616 | 57 | 280 | 5.2 | 0.0 | 0.00 | 0.00 | 0.00 | 10 | 1006.7 |
| 20260506161116 | 58 | 270 | 7.8 | 0.0 | 0.00 | 0.00 | 0.00 | 10 | 1006.7 |
| 20260506160616 | 59 | 270 | 7.8 | 0.0 | 0.00 | 0.00 | 0.00 | 10 | 1006.6 |
| 20260506160116 | 58 | 270 | 7.8 | 0.0 | 0.00 | 0.00 | 0.00 | 10 | 1006.7 |
| 20260506155617 | 58 | 270 | 7.8 | 0.0 | 0.00 | 0.00 | 0.00 | 10 | 1006.6 |
| 20260506155116 | 59 | 270 | 7.8 | 0.0 | 0.00 | 0.00 | 0.00 | 10 | 1006.5 |
| 20260506154616 | 59 | 270 | 7.8 | 0.0 | 0.00 | 0.00 | 0.00 | 10 | 1006.5 |
| 20260506154116 | 60 | 270 | 7.8 | 0.0 | 0.00 | 0.00 | 0.00 | 10 | 1006.5 |
| 20260506153616 | 60 | 280 | 7.8 | 14.8 | 0.00 | 0.00 | 0.00 | 10 | 1006.4 |
| 20260506153116 | 60 | 280 | 7.8 | 14.8 | 0.00 | 0.00 | 0.00 | 10 | 1006.4 |
| 20260506152616 | 60 | 280 | 7.8 | 14.8 | 0.00 | 0.00 | 0.00 | 10 | 1006.4 |
| 20260506152116 | 60 | 280 | 7.8 | 14.8 | 0.00 | 0.00 | 0.00 | 10 | 1006.4 |
| 20260506151616 | 60 | 280 | 7.8 | 14.8 | 0.00 | 0.00 | 0.00 | 10 | 1006.4 |
| 20260506151116 | 60 | 280 | 7.8 | 14.8 | 0.00 | 0.00 | 0.00 | 10 | 1006.4 |
| 20260506150616 | 60 | 260 | 7.8 | 10.4 | 0.00 | 0.00 | 0.00 | 10 | 1006.3 |
| 20260506150116 | 59 | 260 | 7.8 | 10.4 | 0.00 | 0.00 | 0.00 | 10 | 1006.3 |
| 20260506145615 | 59 | 260 | 7.8 | 10.4 | 0.00 | 0.00 | 0.00 | 10 | 1006.3 |
| 20260506145115 | 60 | 250 | 6.1 | 0.0 | 0.00 | 0.00 | 0.00 | 10 | 1006.2 |
| 20260506144615 | 59 | 250 | 6.1 | 0.0 | 0.00 | 0.00 | 0.00 | 10 | 1006.2 |
| 20260506144115 | 60 | 250 | 6.1 | 0.0 | 0.00 | 0.00 | 0.00 | 10 | 1006.2 |
| 20260506143615 | 60 | 230 | 7.8 | 0.0 | 0.00 | 0.00 | 0.00 | 10 | 1006.1 |
| 20260506143115 | 60 | 230 | 7.8 | 0.0 | 0.00 | 0.00 | 0.00 | 10 | 1006.2 |
| 20260506142615 | 60 | 230 | 7.8 | 0.0 | 0.00 | 0.00 | 0.00 | 10 | 1006.1 |
| 20260506142115 | 60 | 230 | 7.8 | 0.0 | 0.00 | 0.00 | 0.00 | 10 | 1006.1 |
| 20260506141615 | 61 | 230 | 7.8 | 0.0 | 0.00 | 0.00 | 0.00 | 10 | 1006.1 |
| 20260506141115 | 62 | 230 | 7.8 | 0.0 | 0.00 | 0.00 | 0.00 | 10 | 1006.0 |
| 20260506140615 | 63 | 240 | 7.8 | 0.0 | 0.00 | 0.00 | 0.00 | 95 | 1006.0 |
| 20260506140115 | 65 | 240 | 7.8 | 0.0 | 0.00 | 0.00 | 0.00 | 92 | 1005.9 |
| 20260506135615 | 63 | 240 | 7.8 | 0.0 | 0.00 | 0.00 | 0.00 | 96 | 1005.9 |
| 20260506135115 | 64 | 240 | 7.8 | 0.0 | 0.00 | 0.00 | 0.00 | 90 | 1005.8 |
| 20260506134615 | 65 | 240 | 7.8 | 0.0 | 0.00 | 0.00 | 0.00 | 84 | 1005.8 |
| 20260506134115 | 64 | 220 | 6.1 | 0.0 | 0.00 | 0.00 | 0.00 | 85 | 1005.8 |
| 20260506133614 | 64 | 220 | 6.1 | 0.0 | 0.00 | 0.00 | 0.00 | 82 | 1005.8 |
| 20260506133115 | 63 | 220 | 6.1 | 0.0 | 0.00 | 0.00 | 0.00 | 86 | 1005.9 |
| 20260506132614 | 64 | 220 | 6.1 | 0.0 | 0.00 | 0.00 | 0.00 | 86 | 1005.9 |
| 20260506132114 | 64 | 220 | 6.1 | 0.0 | 0.00 | 0.00 | 0.00 | 83 | 1005.8 |
| 20260506131614 | 63 | 220 | 6.1 | 0.0 | 0.00 | 0.00 | 0.00 | 82 | 1005.8 |
| 20260506131114 | 63 | 190 | 7.8 | 0.0 | 0.00 | 0.00 | 0.00 | 80 | 1005.7 |
| 20260506130614 | 64 | 190 | 7.8 | 0.0 | 0.00 | 0.00 | 0.00 | 76 | 1005.6 |
| 20260506130114 | 66 | 190 | 7.8 | 0.0 | 0.00 | 0.00 | 0.00 | 73 | 1005.6 |
| 20260506125614 | 65 | 190 | 7.8 | 0.0 | 0.00 | 0.00 | 0.00 | 74 | 1005.7 |
| 20260506125114 | 65 | 190 | 7.8 | 0.0 | 0.00 | 0.00 | 0.00 | 74 | 1005.7 |
| 20260506124614 | 64 | 190 | 7.8 | 0.0 | 0.00 | 0.00 | 0.00 | 76 | 1005.8 |
| 20260506124114 | 64 | 220 | 7.8 | 0.0 | 0.00 | 0.00 | 0.00 | 77 | 1005.8 |
| 20260506123614 | 64 | 220 | 7.8 | 0.0 | 0.00 | 0.00 | 0.00 | 76 | 1005.8 |
| 20260506123114 | 64 | 220 | 7.8 | 0.0 | 0.00 | 0.00 | 0.00 | 74 | 1005.9 |
| 20260506122614 | 65 | 220 | 7.8 | 0.0 | 0.00 | 0.00 | 0.00 | 73 | 1005.8 |
| 20260506122114 | 66 | 220 | 7.8 | 0.0 | 0.00 | 0.00 | 0.00 | 73 | 1005.7 |
| 20260506121614 | 65 | 220 | 7.8 | 0.0 | 0.00 | 0.00 | 0.00 | 80 | 1005.8 |
| 20260506121114 | 63 | 220 | 7.8 | 0.0 | 0.00 | 0.00 | 0.00 | 81 | 1005.8 |
| 20260506120614 | 63 | 210 | 7.8 | 0.0 | 0.00 | 0.00 | 0.00 | 81 | 1005.8 |
| 20260506120114 | 63 | 210 | 7.8 | 0.0 | 0.00 | 0.00 | 0.00 | 82 | 1005.8 |
| 20260506115613 | 64 | 210 | 7.8 | 0.0 | 0.00 | 0.00 | 0.00 | 80 | 1005.8 |
| 20260506115113 | 64 | 210 | 7.8 | 0.0 | 0.00 | 0.00 | 0.00 | 80 | 1005.8 |
| 20260506114613 | 64 | 210 | 7.8 | 0.0 | 0.00 | 0.00 | 0.00 | 82 | 1005.8 |
| 20260506114113 | 64 | 230 | 8.7 | 0.0 | 0.00 | 0.00 | 0.00 | 80 | 1005.8 |
| 20260506113613 | 63 | 230 | 8.7 | 0.0 | 0.00 | 0.00 | 0.00 | 81 | 1005.7 |
| 20260506113113 | 64 | 230 | 8.7 | 0.0 | 0.00 | 0.00 | 0.00 | 83 | 1005.7 |
| 20260506112613 | 64 | 230 | 8.7 | 0.0 | 0.00 | 0.00 | 0.00 | 83 | 1005.8 |
| 20260506112113 | 64 | 230 | 8.7 | 0.0 | 0.00 | 0.00 | 0.00 | 79 | 1005.8 |
| 20260506111613 | 65 | 230 | 8.7 | 0.0 | 0.00 | 0.00 | 0.00 | 78 | 1005.8 |
| 20260506111113 | 65 | 210 | 7.8 | 0.0 | 0.00 | 0.00 | 0.00 | 74 | 1005.9 |
| 20260506110613 | 64 | 210 | 7.8 | 0.0 | 0.00 | 0.00 | 0.00 | 73 | 1006.0 |
| 20260506110113 | 65 | 210 | 7.8 | 0.0 | 0.00 | 0.00 | 0.00 | 73 | 1005.9 |
| 20260506105613 | 64 | 210 | 7.8 | 0.0 | 0.00 | 0.00 | 0.00 | 75 | 1005.9 |
| 20260506105113 | 65 | 210 | 7.8 | 0.0 | 0.00 | 0.00 | 0.00 | 82 | 1005.9 |
| 20260506104613 | 65 | 220 | 7.8 | 0.0 | 0.00 | 0.00 | 0.00 | 82 | 1006.0 |
| 20260506104113 | 64 | 220 | 7.8 | 0.0 | 0.00 | 0.00 | 0.00 | 85 | 1006.0 |
| 20260506103612 | 63 | 220 | 7.8 | 0.0 | 0.00 | 0.00 | 0.00 | 92 | 1006.1 |
| 20260506103112 | 62 | 220 | 7.8 | 0.0 | 0.00 | 0.00 | 0.00 | 93 | 1006.0 |
| 20260506102612 | 62 | 220 | 7.8 | 0.0 | 0.00 | 0.00 | 0.00 | 97 | 1006.0 |
| 20260506102112 | 62 | 220 | 7.8 | 0.0 | 0.00 | 0.00 | 0.00 | 95 | 1006.1 |
| 20260506101612 | 62 | 220 | 7.8 | 0.0 | 0.00 | 0.00 | 0.00 | 97 | 1006.0 |
| 20260506101112 | 62 | 220 | 7.8 | 0.0 | 0.00 | 0.00 | 0.00 | 98 | 1006.0 |
| 20260506100612 | 62 | 220 | 7.8 | 0.0 | 0.00 | 0.00 | 0.00 | 97 | 1006.0 |
| 20260506100112 | 62 | 220 | 7.8 | 0.0 | 0.00 | 0.00 | 0.00 | 94 | 1006.0 |
| 20260506095612 | 62 | 220 | 7.8 | 0.0 | 0.00 | 0.00 | 0.00 | 94 | 1006.0 |
| 20260506095112 | 62 | 220 | 7.8 | 0.0 | 0.00 | 0.00 | 0.00 | 95 | 1005.9 |
| 20260506094612 | 63 | 220 | 7.8 | 0.0 | 0.00 | 0.00 | 0.00 | 90 | 1006.0 |
| 20260506094112 | 62 | 220 | 7.8 | 0.0 | 0.00 | 0.00 | 0.00 | 96 | 1005.9 |
| 20260506093612 | 64 | 200 | 7.0 | 0.0 | 0.00 | 0.00 | 0.00 | 10 | 1006.0 |